Regional Weather Roundup
Issued by NWS Sioux Falls, SD

Home | Current Version | Previous Version | Graphics & Text | Print | Product List | Glossary Off
Versions: 1 2 3 4 5 6 7 8 9 10 11 12 13 14 15 16 17 18 19 20 21 22 23 24 25 26 27 28 29 30 31 32 33 34 35 36 37 38 39 40 41 42 43 44 45 46 47 48 49 50

108
ASUS43 KFSD 261910
RWRFSD

WEATHER ROUNDUP FOR SE SOUTH DAKOTA/SW MINNESOTA/NW IOWA
NATIONAL WEATHER SERVICE SIOUX FALLS SD
200 PM CDT THU APR 26 2018

NOTE: "FAIR" INDICATES FEW OR NO CLOUDS BELOW 12,000 FEET WITH NO
SIGNIFICANT WEATHER AND OR OBSTRUCTIONS TO VISIBILITY.


SDZ038>040-050-052>070-262000-
SOUTHEAST SOUTH DAKOTA

CITY           SKY/WX    TMP DP  RH WIND       PRES   REMARKS
BROOKINGS      SUNNY     55  30  38 N21G31    30.03F
CHAMBERLAIN    SUNNY     62  29  28 N21G26    30.13F
HURON          SUNNY     60  29  30 N25G37    30.09F
MADISON        FAIR      55  30  38 N23G31    30.06S
MITCHELL       SUNNY     61  31  32 N21G33    30.10S
SIOUX FALLS    SUNNY     60  31  33 N20G37    30.04R
WINNER         FAIR      63  26  24 N23G30    30.15F
YANKTON        SUNNY     60  32  34 N23G33    30.06R
$$

MNZ071-072-080-081-089-090-097-098-262000-
SOUTHWEST MINNESOTA

CITY           SKY/WX    TMP DP  RH WIND       PRES   REMARKS
FAIRMONT       MOSUNNY   58  45  62 NW22G31   29.92S
JACKSON        MOSUNNY   57  41  54 N18G39    29.95R
LUVERNE        SUNNY     55  28  35 N23G32    30.02R
MARSHALL       SUNNY     55  36  48 N31       29.98S
MONTEVIDEO     SUNNY     57  30  35 N32G39    29.99F
PIPESTONE      SUNNY    N/A N/A N/A N18G35    30.02R
REDWOOD FALLS  SUNNY     59  26  28 NW20G30   29.95S
TRACY          SUNNY     56  35  46 N23G32    29.99R
WINDOM         SUNNY     59  30  33 NW25G33   29.95S
WORTHINGTON    SUNNY     56  37  49 N26G36    29.98R
$$

IAZ001>003-012>014-020>022-031-032-NEZ013-014-SDZ071-262000-
NORTHWEST IOWA

CITY           SKY/WX    TMP DP  RH WIND       PRES   REMARKS
CHEROKEE       MOSUNNY   61  41  47 N23G32    29.96R
DENISON        CLOUDY    66  39  37 NW17      29.95R
ESTHERVILLE    MOSUNNY   58  44  60 N22G29    29.93S
LE MARS        SUNNY     63  37  39 N23G35    29.99R
ORANGE CITY    SUNNY     61  36  39 N16G30    29.99S
SHELDON        SUNNY     61  34  36 N30       29.97R
SIOUX CITY     SUNNY     65  40  39 N25G36    29.98R
SPENCER        MOSUNNY   61  41  47 N23G36    29.96R
STORM LAKE     MOSUNNY   63  37  39 NW21G29   29.95R
$$

ABBREVIATIONS USED IN REMARKS
   TC - TEMPERATURE IN CELSIUS
  WCI - WIND CHILL INDEX
   HX - HEAT INDEX
  VSB - VISIBILITY





USA.gov is the U.S. government's official web portal to all federal, state and local government web resources and services.